Location: Eaton
(41.3139°N, 82.0207°W)
Time: 13:28:55
(UTC+00:00)

Okean 1-7 Rocket - Pass Details

Date: 17 June 2021
Orbit: 616 x 649 km, 82.5° (Epoch: 30 July)

Event Time Altitude Azimuth Distance (km) Brightness Sun altitude
Exits shadow 05:35:54 42° 280° (W) 911 4.4 -25.3°
Maximum altitude 05:35:56 42° 282° (WNW) 910 4.4 -25.3°
Drops below altitude 10° 05:40:12 10° 354° (N) 2,018 7.2 -25.2°
Sets 05:42:32 0° 1° (N) 2,924 8.4 -25.2°
